JST415 YBCG-YSSY

Flight info

Callsign JST415
Flight time N/A
Altitude 32000
Route DCT GOMOL Q16 APAGI H91 IGDAM H652 BOREE BOREE4A
Aircraft A320/M-SDE3FGHIRWY/LB1

Departure

Time 2026-05-05 06:37
Airport Gold Coast Airport (YBCG)

Arrival

Time N/A
Airport Sydney Kingsford Smith International Airport (YSSY)
Time Latitude Longitude Altitude Speed Heading
2026-05-05 06:09 -28.16911 153.51300 24 ft 0 kts 60°
2026-05-05 06:29 -28.16912 153.51298 24 ft 1 kts 61°
2026-05-05 06:29 -28.16919 153.51283 24 ft 2 kts 60°
2026-05-05 06:29 -28.16926 153.51270 23 ft 2 kts 60°
2026-05-05 06:30 -28.16934 153.51254 23 ft 2 kts 60°
2026-05-05 06:30 -28.16940 153.51239 23 ft 2 kts 86°
2026-05-05 06:30 -28.16938 153.51221 23 ft 2 kts 110°
2026-05-05 06:30 -28.16930 153.51207 23 ft 2 kts 135°
2026-05-05 06:31 -28.16924 153.51201 23 ft 1 kts 149°
2026-05-05 06:31 -28.16917 153.51196 23 ft 0 kts 151°
2026-05-05 06:33 -28.16932 153.51205 23 ft 10 kts 149°
2026-05-05 06:33 -28.17006 153.51253 24 ft 12 kts 150°
2026-05-05 06:34 -28.17079 153.51251 24 ft 14 kts 224°
2026-05-05 06:34 -28.17177 153.51256 23 ft 18 kts 149°
2026-05-05 06:34 -28.17286 153.51326 24 ft 18 kts 150°
2026-05-05 06:34 -28.17398 153.51396 25 ft 18 kts 150°
2026-05-05 06:35 -28.17491 153.51443 24 ft 10 kts 174°
2026-05-05 06:35 -28.17542 153.51422 24 ft 6 kts 225°
2026-05-05 06:35 -28.17579 153.51347 22 ft 14 kts 255°
2026-05-05 06:35 -28.17519 153.51259 21 ft 15 kts 330°
2026-05-05 06:36 -28.17419 153.51198 21 ft 16 kts 330°
2026-05-05 06:36 -28.17225 153.51073 21 ft 63 kts 330°
2026-05-05 06:36 -28.16643 153.50702 22 ft 125 kts 330°
2026-05-05 06:36 -28.15731 153.50124 61 ft 171 kts 332°
2026-05-05 06:37 -28.14672 153.49468 534 ft 177 kts 335°
2026-05-05 06:37 -28.13450 153.49056 1031 ft 188 kts 359°
2026-05-05 06:37 -28.12192 153.49385 1620 ft 189 kts 35°
2026-05-05 06:37 -28.11312 153.50411 2212 ft 187 kts 58°
2026-05-05 06:38 -28.10779 153.51816 2534 ft 202 kts 77°
2026-05-05 06:38 -28.10617 153.53442 2876 ft 217 kts 90°
2026-05-05 06:38 -28.10818 153.55243 3231 ft 235 kts 107°
2026-05-05 06:38 -28.11460 153.56898 4020 ft 233 kts 123°
2026-05-05 06:39 -28.12498 153.58301 4685 ft 238 kts 139°
2026-05-05 06:39 -28.13944 153.59343 5114 ft 255 kts 155°
2026-05-05 06:39 -28.15632 153.60165 5661 ft 268 kts 158°
2026-05-05 06:39 -28.17342 153.60968 6448 ft 271 kts 158°
2026-05-05 06:40 -28.19092 153.61798 7247 ft 274 kts 158°
2026-05-05 06:40 -28.20875 153.62654 7976 ft 280 kts 157°
2026-05-05 06:40 -28.22709 153.63374 8690 ft 284 kts 172°
2026-05-05 06:40 -28.24675 153.63197 9414 ft 287 kts 199°
2026-05-05 06:41 -28.26397 153.62082 10137 ft 289 kts 223°
2026-05-05 06:41 -28.27661 153.60266 10594 ft 300 kts 238°
2026-05-05 06:41 -28.28812 153.58215 10950 ft 316 kts 238°
2026-05-05 06:41 -28.30000 153.56081 11525 ft 323 kts 239°
2026-05-05 06:42 -28.31211 153.53926 12196 ft 325 kts 239°
2026-05-05 06:42 -28.32446 153.51744 12851 ft 328 kts 240°
2026-05-05 06:42 -28.33675 153.49570 13485 ft 330 kts 240°
2026-05-05 06:42 -28.34915 153.47386 14133 ft 331 kts 240°
2026-05-05 06:43 -28.36144 153.45219 14775 ft 332 kts 241°
2026-05-05 06:43 -28.37401 153.43005 15384 ft 334 kts 241°
2026-05-05 06:43 -28.38668 153.40773 15968 ft 336 kts 242°
2026-05-05 06:43 -28.39933 153.38544 16536 ft 337 kts 242°
2026-05-05 06:44 -28.41193 153.36317 17118 ft 338 kts 242°
2026-05-05 06:44 -28.42470 153.34068 17597 ft 343 kts 243°
2026-05-05 06:44 -28.43779 153.31753 18038 ft 348 kts 243°
2026-05-05 06:44 -28.45086 153.29440 18585 ft 349 kts 243°
2026-05-05 06:45 -28.46382 153.27153 19163 ft 350 kts 243°
2026-05-05 06:45 -28.47716 153.24799 19708 ft 352 kts 243°
2026-05-05 06:45 -28.49029 153.22476 20251 ft 352 kts 243°
2026-05-05 06:45 -28.50358 153.20126 20759 ft 354 kts 244°
2026-05-05 06:46 -28.51690 153.17767 21273 ft 355 kts 244°
2026-05-05 06:46 -28.53019 153.15413 21754 ft 357 kts 244°
2026-05-05 06:46 -28.54355 153.13048 22248 ft 358 kts 244°
2026-05-05 06:46 -28.55718 153.10631 22732 ft 360 kts 244°
2026-05-05 06:47 -28.57064 153.08243 23184 ft 361 kts 244°
2026-05-05 06:47 -28.58423 153.05833 23662 ft 362 kts 244°
2026-05-05 06:47 -28.59790 153.03406 24099 ft 363 kts 245°
2026-05-05 06:47 -28.61137 153.01013 24474 ft 366 kts 245°
2026-05-05 06:48 -28.62519 152.98555 24849 ft 368 kts 245°
2026-05-05 06:48 -28.63898 152.96103 25232 ft 370 kts 245°
2026-05-05 06:48 -28.65292 152.93623 25661 ft 371 kts 246°
2026-05-05 06:48 -28.66680 152.91148 26040 ft 372 kts 246°
2026-05-05 06:49 -28.68011 152.88774 26443 ft 373 kts 246°
2026-05-05 06:49 -28.69430 152.86241 26816 ft 375 kts 246°
2026-05-05 06:49 -28.70845 152.83717 27178 ft 376 kts 246°
2026-05-05 06:49 -28.72254 152.81197 27533 ft 378 kts 247°
2026-05-05 06:50 -28.73671 152.78662 27824 ft 381 kts 247°
2026-05-05 06:50 -28.75090 152.76125 28162 ft 382 kts 247°
2026-05-05 06:50 -28.76532 152.73546 28526 ft 383 kts 247°
2026-05-05 06:50 -28.77952 152.71007 28839 ft 385 kts 248°
2026-05-05 06:51 -28.79402 152.68405 29137 ft 387 kts 248°
2026-05-05 06:51 -28.80834 152.65836 29440 ft 388 kts 248°
2026-05-05 06:51 -28.82369 152.63238 29731 ft 396 kts 243°
2026-05-05 06:51 -28.84170 152.60811 30147 ft 403 kts 238°
2026-05-05 06:52 -28.86226 152.58588 30592 ft 410 kts 232°
2026-05-05 06:52 -28.88507 152.56619 31005 ft 418 kts 226°
2026-05-05 06:52 -28.91081 152.54860 31233 ft 430 kts 221°
2026-05-05 06:52 -28.93734 152.53256 31594 ft 431 kts 220°
2026-05-05 06:53 -28.96412 152.51675 31923 ft 432 kts 220°
2026-05-05 06:53 -28.99077 152.50101 32075 ft 434 kts 220°